Regional Weather Roundup
Issued by NWS Northern Indiana

Home | Current Version | Previous Version | Text Only | Print | Product List | Glossary Off
Versions: 1 2 3 4 5 6 7 8 9 10 11 12 13 14 15 16 17 18 19 20 21 22 23 24 25 26 27 28 29 30 31 32 33 34 35 36 37 38 39 40 41 42 43 44 45 46 47 48 49 50

459
ASUS43 KIWX 210010
RWRIWX

KIWX WEATHER ROUNDUP
NATIONAL WEATHER SERVICE NORTHERN INDIANA
700 PM EST FRI JAN 20 2017

NOTE: "FAIR" INDICATES FEW OR NO CLOUDS BELOW 12,000 FEET WITH NO
SIGNIFICANT WEATHER AND/OR OBSTRUCTIONS TO VISIBILITY.

* THESE STATIONS ARE NOT UNDER NWS QUALITY CONTROL. THEY ALSO MAY NOT
  REPORT WEATHER SUCH AS PRECIPITATION OR FOG.

INZ001>027-210100-
NORTHERN INDIANA

CITY           SKY/WX    TMP DP  RH WIND       PRES   REMARKS
GARY*          CLOUDY    45  43  93 CALM      29.67S FOG
VALPARAISO     CLOUDY    46  46 100 SE8       29.68S FOG
6HR MIN TEMP:  42; 6HR MAX TEMP:  47;

LAPORTE*       FOG       44  44 100 S5        29.69S VSB 3/4
6HR MIN TEMP:  39; 6HR MAX TEMP:  44;

KNOX*          CLOUDY    45  39  81 S6        29.69R
SOUTH BEND     CLOUDY    42  42 100 SE5       29.70R FOG
6HR MIN TEMP:  39; 6HR MAX TEMP:  42;

ELKHART*       FOG       43  41  93 CALM      29.70R VSB 1
GOSHEN         FOG       45  42  89 S7        29.71R VSB 1/2
6HR MIN TEMP:  41; 6HR MAX TEMP:  45;

ROCHESTER*     CLOUDY    46  46 100 SE3       29.71R FOG
WARSAW*        CLOUDY    45  43  93 CALM      29.72R FOG
FORT WAYNE     CLOUDY    49  45  86 S7        29.73R
6HR MIN TEMP:  47; 6HR MAX TEMP:  51; 6HR PCP: TRACE;

PERU/GRISSOM   CLOUDY    48  48 100 SE3       29.69S
6HR MIN TEMP:  47; 6HR MAX TEMP:  51;

MARION*        CLOUDY    48  48 100 E6        29.72F FOG

$$
INZ028>050-210100-
CENTRAL INDIANA

CITY           SKY/WX    TMP DP  RH WIND       PRES   REMARKS
LAFAYETTE      CLOUDY    49  47  93 SE5       29.67S
6HR MIN TEMP:  48; 6HR MAX TEMP:  50;

KOKOMO*        CLOUDY    49  47  93 SE6       29.71S
6HR MIN TEMP:  49; 6HR MAX TEMP:  51;

MUNCIE*        CLOUDY    54  47  77 S3        29.72R
6HR MIN TEMP:  54; 6HR MAX TEMP:  55; 6HR PCP: TRACE;

INDIANAPOLIS   CLOUDY    52  47  83 SE7       29.69F
6HR MIN TEMP:  52; 6HR MAX TEMP:  55; 6HR PCP: TRACE;


$$
MIZ043>046-050>051-056>058-064>065-071>073-077>080-210100-
SOUTHWEST LOWER MICHIGAN

CITY           SKY/WX    TMP DP  RH WIND       PRES   REMARKS
BATTLE CREEK   CLOUDY    39  39 100 S3        29.70R FOG
6HR MIN TEMP:  37; 6HR MAX TEMP:  40;

BENTON HARBOR  CLOUDY    42  40  92 SE3       29.69R FOG
6HR MIN TEMP:  40; 6HR MAX TEMP:  42;

COLDWATER*     FOG       41  41 100 CALM      29.71R VSB 3/4
6HR MIN TEMP:  39; 6HR MAX TEMP:  41;

HILLSDALE*     FOG       39  39 100 CALM      29.70R VSB 1/2
HOLLAND        CLOUDY    38  36  92 SE5       29.70R
6HR MIN TEMP:  37; 6HR MAX TEMP:  38;

GRAND RAPIDS   FOG       35  34  96 E3        29.70R VSB 1/4
6HR MIN TEMP:  35; 6HR MAX TEMP:  36; 6HR PCP: TRACE;

KALAMAZOO      FOG       40  38  93 SE3       29.70R VSB 1/2
6HR MIN TEMP:  38; 6HR MAX TEMP:  40;

STURGIS*       FOG       41  41 100 CALM      29.70R VSB 3/4
6HR MIN TEMP:  38; 6HR MAX TEMP:  41;

THREE RIVERS*  FOG       40  40 100 CALM      29.71R VSB 3/4
6HR MIN TEMP:  38; 6HR MAX TEMP:  41;


$$
OHZ001>008-015>018-024>025-210100-
NORTHWEST OHIO

CITY           SKY/WX    TMP DP  RH WIND       PRES   REMARKS
DEFIANCE       CLOUDY    46  45  96 CALM      29.73R FOG
6HR MIN TEMP:  42; 6HR MAX TEMP:  46;

FINDLAY        CLOUDY    50  46  86 SW5       29.74R
6HR MIN TEMP:  49; 6HR MAX TEMP:  52;

TOLEDO EXPRESS CLOUDY    45  45 100 CALM      29.73R FOG
6HR MIN TEMP:  41; 6HR MAX TEMP:  45;

TOLEDO METCALF CLOUDY    46  45  96 S3        29.74S FOG
6HR MIN TEMP:  42; 6HR MAX TEMP:  46;

LIMA           CLOUDY    50  50 100 CALM      29.75R
6HR MIN TEMP:  50; 6HR MAX TEMP:  54;


$$
AND FOR LAKE MICHIGAN COASTAL AND OPEN LAKE BUOY OBSERVATIONS

STATION/POSITION TEMP    WIND        PRES    VSBY  WAVE
                 AIR SEA DIR/SP/G                  HT/PER
                 (F)     (DEG/KT/KT) (MB)    (MI)  (FT/S)
CALUMET HARBOR    36      80/  5/  5 1004.3R
MICHIGAN CITY     41      70/  4/  5   N/A
BURNS HARBOR      45     170/  5/  8 1005.8R

$$
&&




USA.gov is the U.S. government's official web portal to all federal, state and local government web resources and services.